Wind_Speed
20 23 22 22 24 25 27 29 28 27 26 26 27 29 28 26 26 26 26 27 29 32 35 38 41 43 45 47 49 51 54 55 57 59 59 60 63 63 57 55 54 56 57
22 25 23 25 26 28 30 33 35 33 32 32 32 32 32 31 30 31 31 32 33 35 40 43 45 46 49 51 52 55 58 59 60 60 59 58 54 50 49 50 51 51 53
24 27 28 29 31 32 34 37 38 37 37 38 39 38 38 38 36 36 35 36 39 43 46 48 48 50 52 53 54 57 59 60 57 53 48 42 40 41 43 44 44 45 47
27 30 32 33 34 35 37 39 40 40 41 41 42 42 43 44 40 41 41 42 47 51 52 52 51 51 53 55 57 59 58 54 46 42 40 40 40 40 41 41 42 44 47
32 34 34 36 37 37 41 42 43 43 43 43 42 41 41 41 41 43 45 48 54 58 56 56 56 56 54 55 59 59 52 44 41 41 41 39 40 44 45 46 45 47 52
34 35 36 38 39 40 41 43 45 44 45 45 44 42 41 42 45 46 51 57 61 62 59 58 58 57 55 57 58 53 44 41 43 43 41 40 42 44 48 50 52 53 55
38 39 40 41 41 42 43 45 47 46 49 45 44 45 43 43 45 50 57 63 65 64 59 57 58 57 59 57 51 43 41 44 45 43 43 45 47 49 52 54 56 56 55
43 44 43 43 44 45 49 44 45 49 53 45 48 51 45 41 46 52 60 66 66 59 55 57 57 58 54 46 42 43 44 45 44 45 47 50 52 55 58 60 60 58 56
39 36 36 39 44 46 47 47 49 52 54 53 55 52 42 41 50 56 60 63 61 56 54 55 56 50 42 42 44 44 43 44 46 50 53 55 57 60 62 62 61 60 59
35 34 37 41 45 48 51 52 54 59 59 53 47 39 39 46 53 55 56 56 53 52 50 52 47 43 41 42 42 44 45 48 53 56 58 60 62 63 63 61 59 59 60
35 36 38 42 46 47 51 54 53 59 57 48 34 32 41 50 52 52 52 51 49 49 50 46 43 43 43 43 44 48 52 56 59 61 63 64 64 61 58 57 55 54 54
36 38 40 43 47 49 50 57 54 48 46 44 43 52 56 50 49 51 51 49 49 49 44 41 43 43 44 46 50 54 58 61 63 64 65 63 59 55 53 52 50 48 46
41 42 43 45 47 45 50 52 41 44 48 48 52 53 48 50 53 51 47 46 48 45 42 43 44 46 49 52 54 59 62 64 65 64 62 59 54 49 48 46 43 41 40
40 42 47 48 44 41 47 42 40 47 47 48 49 50 50 52 50 48 47 47 43 42 44 45 46 50 54 57 59 62 64 64 64 62 58 53 48 44 42 39 38 37 36
40 42 45 45 42 45 45 39 51 51 46 45 43 46 48 48 47 47 46 43 42 44 45 48 52 56 58 59 60 61 61 60 57 52 47 44 41 38 36 34 33 31 28
45 46 45 43 47 48 47 55 51 43 38 42 43 44 43 44 43 43 42 43 44 46 49 52 55 57 59 60 59 57 55 54 52 48 44 42 39 35 31 28 27 24 22
52 54 55 54 53 56 60 56 44 42 44 43 43 44 42 39 39 40 41 44 46 49 52 54 57 58 57 56 53 52 52 51 49 43 37 34 31 25 21 22 22 20 17
58 61 60 57 56 55 51 43 44 46 43 43 43 41 39 39 39 41 43 46 49 51 53 55 56 54 52 49 47 46 43 42 39 34 31 26 22 19 19 21 20 17 13
61 57 54 48 46 44 39 40 41 39 40 41 41 40 39 40 40 43 46 48 49 50 52 53 52 49 46 43 40 38 39 42 38 31 26 21 18 19 18 17 15 11 10
51 51 48 37 41 37 35 35 36 37 38 39 38 38 38 39 41 44 46 47 48 49 49 49 48 44 41 38 37 40 42 39 30 23 19 17 16 15 13 10 10 11 12
41 36 41 37 33 29 29 31 34 36 36 35 36 36 37 39 42 43 45 47 47 46 46 46 42 39 37 36 36 38 36 28 20 14 11 10 9 8 4 8 13 14 13
29 24 25 23 25 26 27 30 32 33 32 33 35 36 38 41 43 44 45 44 43 43 43 42 40 38 35 32 30 29 27 20 14 12 10 9 7 2 7 12 14 14 13
21 19 18 20 22 23 26 28 29 30 29 32 34 37 40 42 43 43 42 40 40 41 42 41 39 36 28 23 22 23 20 16 15 13 10 8 5 6 10 12 13 13 10
21 19 19 19 20 22 25 26 26 25 28 32 36 39 41 42 41 40 38 37 39 41 40 37 35 28 19 16 19 18 14 13 16 14 11 8 8 8 11 13 11 9 10
16 17 17 18 21 22 21 21 22 25 29 33 37 39 40 40 38 37 36 38 38 38 36 32 28 22 18 16 16 13 9 12 14 12 11 10 10 12 12 13 14 15 15
12 13 16 18 17 15 17 19 22 26 31 35 36 37 37 37 36 37 38 37 36 34 32 28 24 21 17 13 12 11 9 10 11 11 10 11 14 17 18 20 19 17 15
Wind_Direction
295 301 305 314 322 321 325 327 327 322 320 320 326 330 331 329 323 317 314 312 310 309 308 308 306 306 306 305 303 301 300 297 295 292 288 286 284 284 284 283 284 284 281
289 296 305 315 313 316 319 319 320 318 315 315 318 323 328 329 328 323 319 319 317 315 316 315 311 310 308 306 304 302 299 296 295 292 290 288 283 279 282 283 284 285 284
285 290 299 307 308 310 311 311 312 312 314 314 316 320 326 327 324 324 324 325 323 319 317 315 311 309 307 305 303 302 301 299 295 294 294 290 286 283 281 280 282 285 288
276 282 291 299 302 303 303 302 305 308 310 313 314 317 320 323 323 322 322 322 323 320 315 311 308 307 307 305 304 304 304 302 297 296 296 294 292 288 286 288 289 292 293
272 280 285 289 293 296 297 295 296 299 303 306 309 313 317 320 321 321 318 314 316 319 315 311 309 307 306 305 305 305 303 300 294 294 295 293 293 293 294 293 293 294 295
273 278 281 283 288 294 292 289 288 290 294 297 301 306 312 316 317 317 315 314 314 316 315 313 310 308 307 307 307 303 299 295 293 293 292 293 295 295 295 295 295 294 296
268 273 279 283 289 288 282 280 281 283 287 291 296 302 306 310 310 313 315 315 314 314 313 310 308 309 309 308 304 298 294 292 293 292 293 296 295 295 294 294 294 294 296
267 271 278 282 283 279 277 276 287 289 289 290 293 294 300 306 307 310 313 314 312 312 310 309 309 309 309 304 300 299 296 295 293 292 294 294 294 296 296 295 294 295 296
273 275 277 280 282 280 286 293 294 288 287 289 292 292 295 304 308 310 311 311 310 310 310 310 310 309 306 303 302 299 297 295 293 294 294 294 295 296 296 294 293 294 295
269 269 271 277 280 285 289 293 293 291 288 289 292 300 303 306 309 310 311 309 309 310 312 311 309 306 304 302 299 297 297 297 297 296 295 296 296 295 293 291 292 293 294
269 274 280 284 284 284 285 290 296 302 289 280 289 303 307 310 310 308 308 310 311 313 312 309 306 305 305 303 302 300 300 299 298 298 297 296 295 293 290 289 291 291 293
281 283 286 287 284 285 290 295 302 298 299 304 316 323 321 312 309 310 311 313 312 310 309 307 306 306 307 307 304 301 299 299 299 298 298 297 295 292 290 290 289 289 291
286 286 287 290 286 287 293 298 301 305 316 317 313 316 311 307 310 312 313 313 310 309 308 306 308 309 308 306 304 302 301 300 300 300 299 297 294 291 289 288 285 286 288
291 285 284 284 285 299 307 309 320 326 322 318 314 311 311 313 314 315 314 312 310 309 309 309 311 310 308 308 306 304 303 303 303 301 301 299 295 290 287 285 284 286 287
287 286 287 290 294 304 309 305 322 322 321 317 311 310 312 314 314 314 312 310 311 312 312 313 313 312 309 307 306 306 306 305 304 306 308 304 298 290 285 284 285 286 283
283 288 292 294 297 301 302 310 316 315 316 315 312 310 313 313 313 311 311 312 314 316 315 315 313 310 308 308 310 310 308 305 305 307 306 303 298 292 285 282 284 285 278
284 289 293 298 298 299 305 311 312 312 314 315 316 317 316 313 311 310 313 315 317 317 316 317 313 311 311 313 313 310 308 306 306 308 307 303 298 294 284 281 286 287 272
288 291 294 296 298 302 305 304 304 307 312 318 322 321 317 314 314 315 318 319 320 319 318 315 313 315 316 316 314 314 316 317 316 313 310 306 300 295 286 284 284 280 254
287 290 293 293 297 302 304 303 303 307 315 321 321 318 316 317 318 320 321 320 320 318 316 314 317 320 320 320 319 320 322 321 316 309 306 298 291 290 286 281 269 249 209
285 287 283 273 292 293 298 300 304 311 317 318 315 314 316 317 320 322 321 320 318 317 317 320 324 325 325 324 320 321 324 325 320 310 304 298 294 294 287 259 222 195 171
280 263 265 274 281 285 292 299 306 313 315 313 312 312 315 319 322 323 321 320 319 321 325 327 327 327 327 325 325 327 331 333 330 323 316 310 303 302 264 192 177 166 148
260 260 266 274 282 289 298 305 311 311 310 309 309 313 319 323 325 323 322 321 324 328 329 330 329 328 328 332 336 338 339 342 341 338 337 333 325 324 157 163 161 150 144
289 287 282 280 286 301 309 311 309 308 308 308 312 319 323 326 325 324 323 326 329 331 332 331 329 329 331 337 340 340 347 356 359 4 3 0 27 102 139 148 148 147 152
286 282 282 289 305 313 311 308 307 308 308 313 319 323 327 327 325 324 327 332 333 333 334 332 331 334 338 339 337 338 345 358 359 3 12 35 69 105 128 134 138 146 153
263 275 292 308 311 308 307 307 307 310 317 321 324 328 328 327 327 330 334 336 334 334 335 335 336 339 337 338 339 341 348 355 3 20 41 71 86 111 121 127 133 137 143
278 297 306 305 306 312 310 310 314 323 325 326 330 329 328 329 331 334 335 335 336 337 338 339 339 339 337 344 356 359 350 351 12 37 54 75 99 110 118 126 127 130 137
Height
5852 5851 5849 5850 5849 5848 5846 5844 5844 5844 5842 5839 5835 5832 5828 5824 5820 5817 5814 5810 5807 5804 5800 5796 5791 5786 5781 5776 5771 5765 5760 5754 5749 5744 5740 5735 5729 5724 5721 5716 5711 5707 5703
5846 5845 5845 5845 5843 5842 5840 5839 5838 5836 5834 5832 5828 5825 5821 5816 5813 5810 5806 5801 5798 5794 5788 5783 5778 5772 5767 5762 5756 5750 5744 5738 5732 5726 5722 5718 5714 5709 5707 5702 5698 5694 5690
5840 5839 5838 5838 5838 5835 5833 5832 5829 5826 5822 5819 5816 5813 5810 5807 5803 5799 5795 5790 5786 5781 5775 5769 5763 5758 5753 5747 5741 5735 5728 5722 5716 5709 5703 5699 5697 5696 5695 5691 5687 5683 5677
5835 5833 5832 5831 5830 5828 5825 5822 5818 5815 5813 5810 5806 5802 5800 5797 5793 5789 5784 5779 5774 5769 5763 5757 5750 5744 5738 5732 5725 5719 5712 5705 5700 5695 5690 5686 5683 5681 5680 5678 5674 5669 5663
5828 5827 5825 5824 5823 5822 5819 5814 5811 5808 5805 5802 5799 5795 5792 5789 5783 5778 5773 5768 5762 5757 5750 5744 5737 5729 5721 5715 5709 5702 5696 5691 5687 5683 5679 5676 5672 5668 5664 5661 5659 5655 5648
5820 5818 5817 5816 5816 5815 5812 5808 5804 5800 5798 5795 5792 5787 5782 5778 5773 5768 5763 5756 5749 5742 5735 5730 5723 5716 5708 5701 5694 5687 5682 5679 5675 5671 5667 5663 5660 5656 5651 5647 5644 5641 5636
5812 5811 5810 5808 5808 5806 5802 5798 5794 5790 5787 5784 5781 5777 5773 5768 5762 5757 5751 5744 5736 5728 5723 5715 5708 5702 5695 5686 5680 5674 5670 5666 5663 5659 5655 5650 5646 5642 5638 5634 5630 5626 5622
5804 5803 5802 5800 5799 5795 5790 5788 5786 5782 5778 5775 5772 5768 5763 5758 5752 5745 5739 5732 5725 5716 5709 5701 5695 5687 5679 5672 5668 5664 5659 5654 5651 5647 5643 5638 5633 5628 5622 5617 5612 5609 5606
5796 5794 5793 5791 5789 5785 5782 5780 5776 5772 5768 5766 5762 5758 5752 5747 5742 5733 5726 5720 5713 5706 5697 5688 5681 5673 5666 5661 5657 5653 5648 5644 5640 5636 5630 5624 5618 5612 5606 5599 5593 5591 5589
5787 5786 5785 5783 5781 5779 5775 5771 5767 5764 5760 5756 5752 5747 5744 5739 5731 5722 5715 5710 5704 5696 5687 5678 5671 5663 5656 5651 5646 5642 5637 5633 5627 5621 5615 5607 5601 5594 5588 5582 5577 5573 5570
5780 5780 5779 5777 5775 5773 5770 5763 5759 5755 5750 5745 5740 5737 5735 5730 5721 5711 5704 5698 5691 5684 5675 5668 5661 5654 5646 5641 5635 5631 5625 5618 5611 5604 5597 5590 5584 5577 5571 5566 5562 5557 5553
5773 5773 5771 5769 5766 5763 5760 5755 5750 5746 5743 5738 5733 5729 5724 5717 5708 5698 5692 5686 5679 5671 5662 5655 5649 5642 5636 5630 5624 5618 5610 5602 5595 5586 5579 5572 5566 5560 5555 5551 5548 5544 5540
5767 5765 5762 5758 5756 5753 5750 5745 5741 5737 5732 5727 5721 5716 5710 5703 5694 5686 5679 5672 5666 5657 5649 5644 5637 5631 5625 5617 5610 5602 5594 5586 5577 5568 5561 5555 5550 5545 5540 5537 5534 5532 5528
5758 5754 5752 5749 5747 5743 5739 5734 5731 5727 5723 5718 5711 5704 5697 5690 5682 5675 5668 5661 5653 5646 5640 5634 5625 5618 5612 5603 5595 5587 5578 5568 5558 5549 5542 5537 5533 5530 5527 5524 5522 5520 5518
5749 5745 5743 5741 5738 5734 5728 5724 5721 5717 5711 5706 5697 5691 5683 5678 5671 5664 5658 5652 5643 5637 5629 5622 5613 5605 5598 5589 5580 5571 5561 5551 5543 5535 5528 5523 5518 5516 5514 5513 5512 5510 5508
5739 5735 5734 5732 5728 5725 5721 5717 5712 5706 5700 5694 5686 5679 5672 5666 5660 5655 5649 5642 5633 5625 5618 5610 5602 5593 5584 5574 5564 5555 5546 5536 5528 5523 5517 5511 5507 5505 5504 5504 5504 5502 5501
5728 5726 5723 5722 5719 5716 5712 5706 5700 5695 5690 5683 5676 5671 5664 5658 5653 5646 5638 5631 5623 5615 5607 5597 5589 5581 5571 5561 5551 5541 5531 5522 5515 5511 5507 5502 5498 5496 5497 5498 5497 5496 5495
5716 5713 5713 5711 5709 5705 5701 5695 5691 5686 5680 5674 5668 5661 5656 5650 5644 5637 5629 5621 5613 5604 5595 5586 5579 5569 5559 5549 5540 5530 5520 5512 5505 5502 5499 5495 5492 5491 5492 5492 5492 5491 5491
5705 5704 5703 5701 5698 5694 5690 5687 5683 5677 5672 5665 5659 5655 5650 5643 5636 5628 5621 5613 5604 5594 5585 5578 5569 5559 5548 5539 5530 5523 5514 5506 5499 5494 5491 5489 5488 5486 5486 5486 5486 5487 5489
5698 5696 5694 5689 5689 5686 5683 5679 5675 5670 5665 5659 5654 5649 5642 5636 5628 5621 5613 5604 5595 5586 5578 5569 5559 5549 5540 5531 5524 5516 5508 5499 5491 5487 5485 5483 5482 5481 5481 5481 5483 5485 5488
5691 5685 5682 5684 5682 5679 5676 5673 5669 5664 5659 5654 5649 5643 5636 5628 5620 5612 5604 5595 5586 5577 5568 5559 5550 5542 5534 5526 5518 5509 5501 5493 5488 5484 5481 5480 5478 5478 5477 5479 5482 5485 5488
5683 5678 5678 5678 5677 5674 5670 5666 5662 5658 5653 5648 5642 5635 5628 5620 5611 5603 5595 5587 5578 5569 5559 5550 5542 5534 5527 5521 5513 5506 5499 5493 5488 5484 5481 5479 5477 5476 5477 5479 5483 5486 5489
5675 5673 5673 5673 5670 5666 5663 5659 5656 5652 5647 5641 5634 5627 5619 5611 5603 5595 5588 5580 5571 5562 5552 5543 5535 5527 5521 5516 5511 5505 5498 5492 5488 5485 5482 5480 5478 5477 5479 5481 5485 5488 5490
5669 5670 5670 5667 5662 5658 5657 5654 5650 5645 5641 5634 5627 5620 5611 5604 5597 5590 5582 5573 5564 5555 5546 5537 5530 5523 5517 5513 5508 5502 5497 5493 5490 5487 5484 5482 5481 5481 5482 5484 5487 5489 5492
5665 5666 5664 5659 5656 5655 5653 5648 5644 5641 5634 5628 5621 5613 5605 5598 5591 5583 5574 5566 5558 5550 5541 5533 5526 5520 5515 5511 5506 5501 5498 5495 5492 5489 5487 5485 5485 5485 5486 5488 5490 5492 5495
5661 5659 5658 5656 5654 5651 5647 5644 5641 5634 5629 5622 5615 5607 5600 5593 5585 5576 5568 5560 5553 5544 5536 5529 5523 5517 5512 5508 5505 5502 5499 5497 5495 5492 5490 5489 5489 5490 5491 5493 5495 5497 5499